"SCET";"TARGET";"ELECTRON_DENSITY";"ERROR_FLAG";"ELECTRON_DENSITY_ERROR";"FREQ_FCE";"MEASURED_VALUE";"MEASURED_ITEM";"FREQ_PLASMA";"FREQ_UPPER_HYBRID";"FREQ_R_EQUALS_ZERO";"FREQ_L_EQUALS_ZERO";"ORBIT_NUMBER";"SATURN_RADIUS";"SATURN_IAU_LONGITUDE";"SATURN_SLS4_S_LONGITUDE";"SATURN_SLS4_N_LONGITUDE";"SATURN_SLS5_S_LONGITUDE";"SATURN_SLS5_N_LONGITUDE";"SATURN_LOCAL_TIME";"SATURN_KRONOGRAPHIC_LATITUDE";"SATURN_MAGNETIC_LATITUDE";"SATURN_L";"SATURN_L_OFFSET";"SATURN_SOLAR_EQUATORIAL_X";"SATURN_SOLAR_EQUATORIAL_Y";"SATURN_SOLAR_EQUATORIAL_Z";"SATURN_ALTITUDE";"ENCELADUS_ENCOUNTER_NUMBER";"ENCELADUS_RADIUS";"ENCELADUS_COROTATIONAL_X";"ENCELADUS_COROTATIONAL_Y";"ENCELADUS_COROTATIONAL_Z";"ENCELADUS_TRUE_ANOMALY";"ENCELADUS_PERIAPSIS_TIME";"JUPITER_RADIUS";"JUPITER_SYSTEMIII_LONGITUDE";"JUPITER_MAGNETIC_LATITUDE";"JUPITER_MAGNETIC_LOCAL_TIME";"JUPITER_L";"IO_PHASE";"EARTH_RADIUS";"EARTH_MAGNETIC_LATITUDE";"EARTH_LOCAL_TIME";"EARTH_L"
"[UTC]";"[0=Saturn, 1=Enceladus, 2=Jupiter, 3=Earth]";"[cm-3]";"[0=automated, 1=manual]";"[normalized density error]";"[Hz]";"[Hz]";"[0=upper hybrid frequency, 1=plasma frequency cutoff]";"[Hz]";"[Hz]";"[Hz]";"[Hz}";"[0, A, B, C, 3, 4, ... , 292, 293]";"[Rs where 1Rs=60268km]";"[degrees]";"[degrees]";"[degrees]";"[degrees]";"[degrees]";"[hours]";"[degrees]";"[degrees where offset=2293km north]";"[Rs where 1Rs=60268km]";"[Rs where 1Rs=60268km and offset=2293km north]";"[Rs where 1Rs=60268km]";"[Rs where 1Rs=60268km]";"[Rs where 1Rs=60268km]";"[km where ellipsoid a,b=60268km and c=54364km]";"[E0, E1, E2, ... , E21, E22]";"[Renc where 1Renc=252.1km]";"[Renc where 1Renc=252.1km]";"[Renc where 1Renc=252.1km]";"[Renc where 1Renc=252.1km]";"[degrees]";"[UTC]";"[Rj where 1Rj=71492km]";"[degrees]";"[degrees using JRM09 model]";"[hours using JRM09 model]";"[Rj where 1Rj=71492km]";"[degrees]";"[Re where 1Re=6378.1366km]";"[degrees]";"[hours]";"[Re where 1Re=6378.1366km]"
2015-12-07T00:00:13.108Z;0;6.3140e+01;0;     0.094; 10033.912;  72057.117; 0;  71355.086;  72057.117;  76548.195;  66514.289;227;   3.830; 129.273;;; 178.312; 104.712;  21.209;  -1.313;  -1.881;   3.832;   3.828;  -2.852;   2.555;  -0.088;;;;;;;;;;;;;;;;;;
2015-12-07T00:00:29.108Z;0;6.2860e+01;0;     0.093; 10033.912;  71899.453; 0;  71195.867;  71899.453;  76389.375;  66355.461;227;   3.833; 129.366;;; 178.404; 104.805;  21.213;  -1.313;  -1.881;   3.835;   3.830;  -2.857;   2.554;  -0.088;;;;;;;;;;;;;;;;;;
2015-12-07T00:00:45.108Z;0;6.2660e+01;0;     0.085; 10033.912;  71788.320; 0;  71083.641;  71788.320;  76277.414;  66243.508;227;   3.835; 129.460;;; 178.498; 104.898;  21.217;  -1.313;  -1.881;   3.838;   3.833;  -2.861;   2.553;  -0.088;;;;;;;;;;;;;;;;;;
2015-12-07T00:01:01.108Z;0;6.2300e+01;0;     0.076;  9958.844;  71576.000; 0;  70879.797;  71576.000;  76033.906;  66075.062;227;   3.838; 129.554;;; 178.591; 104.991;  21.221;  -1.314;  -1.881;   3.840;   3.835;  -2.865;   2.552;  -0.088;;;;;;;;;;;;;;;;;;
2015-12-07T00:01:17.108Z;0;6.2200e+01;0;     0.075;  9958.844;  71521.688; 0;  70824.945;  71521.688;  75979.195;  66020.352;227;   3.841; 129.648;;; 178.684; 105.084;  21.224;  -1.314;  -1.881;   3.843;   3.838;  -2.870;   2.551;  -0.088;;;;;;;;;;;;;;;;;;
2015-12-07T00:01:33.107Z;0;6.2360e+01;0;     0.084;  9958.844;  71607.742; 0;  70911.852;  71607.742;  76065.883;  66107.039;227;   3.843; 129.742;;; 178.777; 105.177;  21.228;  -1.314;  -1.881;   3.845;   3.840;  -2.874;   2.550;  -0.088;;;;;;;;;;;;;;;;;;
2015-12-07T00:01:49.107Z;0;6.2190e+01;0;     0.081;  9958.844;  71512.102; 0;  70815.266;  71512.102;  75969.539;  66010.695;227;   3.846; 129.836;;; 178.871; 105.271;  21.232;  -1.314;  -1.881;   3.848;   3.843;  -2.879;   2.549;  -0.088;;;;;;;;;;;;;;;;;;
2015-12-07T00:02:05.107Z;0;6.1930e+01;0;     0.077;  9881.984;  71357.289; 0;  70669.719;  71357.289;  75783.227;  65901.242;227;   3.848; 129.930;;; 178.964; 105.364;  21.236;  -1.315;  -1.881;   3.850;   3.845;  -2.883;   2.547;  -0.088;;;;;;;;;;;;;;;;;;
2015-12-07T00:02:21.107Z;0;6.1790e+01;0;     0.088;  9881.984;  71275.109; 0;  70586.734;  71275.109;  75700.453;  65818.469;227;   3.851; 130.025;;; 179.057; 105.457;  21.239;  -1.315;  -1.881;   3.853;   3.848;  -2.887;   2.546;  -0.088;;;;;;;;;;;;;;;;;;
2015-12-07T00:02:37.107Z;0;6.2400e+01;0;     0.079;  9881.984;  71620.688; 0;  70935.672;  71620.688;  76048.531;  66166.555;227;   3.853; 130.119;;; 179.151; 105.551;  21.243;  -1.315;  -1.881;   3.855;   3.850;  -2.892;   2.545;  -0.088;;;;;;;;;;;;;;;;;;
2015-12-07T00:02:53.107Z;0;6.2420e+01;0;     0.088;  9881.984;  71631.531; 0;  70946.617;  71631.531;  76059.461;  66177.477;227;   3.856; 130.213;;; 179.245; 105.645;  21.247;  -1.316;  -1.881;   3.858;   3.853;  -2.896;   2.544;  -0.089;;;;;;;;;;;;;;;;;;
2015-12-07T00:03:09.107Z;0;6.2440e+01;0;     0.078;  9805.544;  71631.883; 0;  70957.578;  71631.883;  76029.523;  66223.984;227;   3.858; 130.308;;; 179.338; 105.738;  21.250;  -1.316;  -1.880;   3.860;   3.855;  -2.901;   2.543;  -0.089;;;;;;;;;;;;;;;;;;
2015-12-07T00:03:25.107Z;0;6.2500e+01;0;     0.078;  9805.544;  71667.797; 0;  70993.836;  71667.797;  76065.695;  66260.148;227;   3.861; 130.403;;; 179.432; 105.832;  21.254;  -1.316;  -1.880;   3.863;   3.858;  -2.905;   2.542;  -0.089;;;;;;;;;;;;;;;;;;
2015-12-07T00:03:41.107Z;0;6.2170e+01;0;     0.081;  9805.544;  71478.750; 0;  70802.984;  71478.750;  75875.305;  66069.758;227;   3.863; 130.497;;; 179.526; 105.926;  21.258;  -1.316;  -1.880;   3.865;   3.860;  -2.909;   2.541;  -0.089;;;;;;;;;;;;;;;;;;
2015-12-07T00:03:57.106Z;0;6.2170e+01;0;     0.083;  9805.544;  71483.445; 0;  70807.727;  71483.445;  75880.031;  66074.484;227;   3.866; 130.592;;; 179.620; 106.020;  21.262;  -1.317;  -1.880;   3.868;   3.863;  -2.914;   2.539;  -0.089;;;;;;;;;;;;;;;;;;
2015-12-07T00:04:13.106Z;0;6.2430e+01;0;     0.090;  9731.372;  71617.070; 0;  70952.836;  71617.070;  75985.164;  66253.789;227;   3.868; 130.687;;; 179.714; 106.114;  21.265;  -1.317;  -1.880;   3.871;   3.866;  -2.918;   2.538;  -0.089;;;;;;;;;;;;;;;;;;
2015-12-07T00:04:29.106Z;0;6.2050e+01;0;     0.077;  9731.372;  71405.812; 0;  70739.594;  71405.812;  75772.422;  66041.055;227;   3.871; 130.782;;; 179.808; 106.208;  21.269;  -1.317;  -1.880;   3.873;   3.868;  -2.922;   2.537;  -0.089;;;;;;;;;;;;;;;;;;
2015-12-07T00:04:45.106Z;0;6.1910e+01;0;     0.080;  9731.372;  71325.094; 0;  70658.117;  71325.094;  75691.133;  65959.766;227;   3.874; 130.876;;; 179.902; 106.302;  21.273;  -1.317;  -1.880;   3.876;   3.871;  -2.927;   2.536;  -0.089;;;;;;;;;;;;;;;;;;
2015-12-07T00:05:01.106Z;0;6.2130e+01;0;     0.081;  9657.116;  71436.938; 0;  70781.188;  71436.938;  75774.250;  66117.133;227;   3.876; 130.971;;; 179.997; 106.397;  21.276;  -1.318;  -1.880;   3.878;   3.873;  -2.931;   2.535;  -0.089;;;;;;;;;;;;;;;;;;
2015-12-07T00:05:17.106Z;0;6.2120e+01;0;     0.080;  9657.116;  71434.656; 0;  70778.883;  71434.656;  75771.953;  66114.836;227;   3.879; 131.067;;; 180.091; 106.491;  21.280;  -1.318;  -1.880;   3.881;   3.876;  -2.935;   2.534;  -0.089;;;;;;;;;;;;;;;;;;
2015-12-07T00:05:33.106Z;0;6.2280e+01;0;     0.086;  9657.116;  71523.969; 0;  70869.023;  71523.969;  75861.883;  66204.766;227;   3.881; 131.162;;; 180.185; 106.585;  21.284;  -1.318;  -1.880;   3.883;   3.878;  -2.940;   2.533;  -0.089;;;;;;;;;;;;;;;;;;
2015-12-07T00:05:49.106Z;0;6.2170e+01;0;     0.081;  9657.116;  71461.195; 0;  70805.664;  71461.195;  75798.672;  66141.562;227;   3.884; 131.257;;; 180.280; 106.680;  21.287;  -1.319;  -1.879;   3.886;   3.881;  -2.944;   2.531;  -0.089;;;;;;;;;;;;;;;;;;
2015-12-07T00:06:21.106Z;0;6.2420e+01;0;     0.078;  9582.692;  71590.406; 0;  70946.164;  71590.406;  75899.117;  66316.430;227;   3.889; 131.448;;; 180.469; 106.869;  21.295;  -1.319;  -1.879;   3.891;   3.886;  -2.953;   2.529;  -0.090;;;;;;;;;;;;;;;;;;
2015-12-07T00:06:37.105Z;0;6.2510e+01;0;     0.082;  9582.692;  71640.742; 0;  70996.961;  71640.742;  75949.797;  66367.102;227;   3.891; 131.543;;; 180.564; 106.964;  21.298;  -1.319;  -1.879;   3.893;   3.888;  -2.957;   2.528;  -0.090;;;;;;;;;;;;;;;;;;
2015-12-07T00:06:53.105Z;0;6.3040e+01;0;     0.095;  9582.692;  71938.773; 0;  71297.680;  71938.773;  76249.836;  66667.148;227;   3.894; 131.638;;; 180.658; 107.058;  21.302;  -1.320;  -1.879;   3.896;   3.891;  -2.962;   2.527;  -0.090;;;;;;;;;;;;;;;;;;
2015-12-07T00:07:09.105Z;0;6.2600e+01;0;     0.082;  9508.548;  71684.258; 0;  71050.828;  71684.258;  75963.992;  66455.438;227;   3.896; 131.734;;; 180.753; 107.153;  21.306;  -1.320;  -1.879;   3.899;   3.894;  -2.966;   2.526;  -0.090;;;;;;;;;;;;;;;;;;
2015-12-07T00:07:25.105Z;0;6.3080e+01;0;     0.088;  9508.548;  71950.906; 0;  71319.844;  71950.906;  76232.406;  66723.859;227;   3.899; 131.830;;; 180.848; 107.248;  21.309;  -1.320;  -1.879;   3.901;   3.896;  -2.970;   2.524;  -0.090;;;;;;;;;;;;;;;;;;
2015-12-07T00:07:41.105Z;0;6.3230e+01;0;     0.090;  9508.548;  72037.641; 0;  71407.344;  72037.641;  76319.711;  66811.164;227;   3.902; 131.925;;; 180.943; 107.343;  21.313;  -1.320;  -1.879;   3.904;   3.899;  -2.975;   2.523;  -0.090;;;;;;;;;;;;;;;;;;
2015-12-07T00:07:57.105Z;0;6.3050e+01;0;     0.083;  9508.548;  71933.500; 0;  71302.289;  71933.500;  76214.883;  66706.336;227;   3.904; 132.021;;; 181.038; 107.438;  21.316;  -1.321;  -1.879;   3.906;   3.901;  -2.979;   2.522;  -0.090;;;;;;;;;;;;;;;;;;
2015-12-07T00:08:13.105Z;0;6.3430e+01;0;     0.089;  9436.756;  72140.484; 0;  71520.609;  72140.484;  76394.453;  66957.703;227;   3.907; 132.117;;; 181.133; 107.533;  21.320;  -1.321;  -1.878;   3.909;   3.904;  -2.983;   2.521;  -0.090;;;;;;;;;;;;;;;;;;
2015-12-07T00:08:29.105Z;0;6.3340e+01;0;     0.096;  9436.756;  72086.359; 0;  71466.016;  72086.359;  76339.984;  66903.227;227;   3.909; 132.213;;; 181.229; 107.629;  21.324;  -1.321;  -1.878;   3.911;   3.906;  -2.988;   2.520;  -0.090;;;;;;;;;;;;;;;;;;
2015-12-07T00:08:45.105Z;0;6.2740e+01;0;     0.083;  9436.756;  71754.570; 0;  71131.328;  71754.570;  76006.031;  66569.273;227;   3.912; 132.309;;; 181.324; 107.724;  21.327;  -1.321;  -1.878;   3.914;   3.909;  -2.992;   2.518;  -0.090;;;;;;;;;;;;;;;;;;
2015-12-07T00:09:01.105Z;0;6.2450e+01;0;     0.077;  9366.224;  71578.812; 0;  70963.375;  71578.812;  75800.844;  66434.617;227;   3.914; 132.405;;; 181.419; 107.819;  21.331;  -1.322;  -1.878;   3.916;   3.911;  -2.996;   2.517;  -0.090;;;;;;;;;;;;;;;;;;
2015-12-07T00:09:17.104Z;0;6.2690e+01;0;     0.080;  9366.224;  71712.703; 0;  71098.422;  71712.703;  75935.602;  66569.375;227;   3.917; 132.501;;; 181.515; 107.915;  21.334;  -1.322;  -1.878;   3.919;   3.914;  -3.001;   2.516;  -0.090;;;;;;;;;;;;;;;;;;
2015-12-07T00:09:33.104Z;0;6.2190e+01;0;     0.072;  9366.224;  71432.906; 0;  70816.195;  71432.906;  75653.992;  66287.766;227;   3.919; 132.597;;; 181.610; 108.010;  21.338;  -1.322;  -1.878;   3.922;   3.916;  -3.005;   2.515;  -0.090;;;;;;;;;;;;;;;;;;
2015-12-07T00:09:49.104Z;0;6.2520e+01;0;     0.080;  9366.224;  71618.211; 0;  71003.109;  71618.211;  75840.500;  66474.273;227;   3.922; 132.694;;; 181.706; 108.106;  21.342;  -1.322;  -1.878;   3.924;   3.919;  -3.009;   2.514;  -0.091;;;;;;;;;;;;;;;;;;
2015-12-07T00:10:05.104Z;0;6.2300e+01;0;     0.080;  9293.816;  71484.422; 0;  70877.695;  71484.422;  75676.773;  66382.953;227;   3.925; 132.790;;; 181.802; 108.201;  21.345;  -1.322;  -1.878;   3.927;   3.922;  -3.014;   2.513;  -0.091;;;;;;;;;;;;;;;;;;
2015-12-07T00:10:21.104Z;0;6.2860e+01;0;     0.086;  9293.816;  71799.711; 0;  71195.672;  71799.711;  75994.070;  66700.250;227;   3.927; 132.887;;; 181.899; 108.295;  21.349;  -1.323;  -1.877;   3.929;   3.924;  -3.018;   2.511;  -0.091;;;;;;;;;;;;;;;;;;
2015-12-07T00:10:37.104Z;0;6.2950e+01;0;     0.090;  9293.816;  71852.180; 0;  71248.586;  71852.180;  76046.867;  66753.055;227;   3.930; 132.983;;; 181.996; 108.390;  21.352;  -1.323;  -1.877;   3.932;   3.927;  -3.022;   2.510;  -0.091;;;;;;;;;;;;;;;;;;
2015-12-07T00:10:53.104Z;0;6.2770e+01;0;     0.085;  9293.816;  71748.938; 0;  71144.469;  71748.938;  75942.969;  66649.156;227;   3.932; 133.080;;; 182.093; 108.484;  21.356;  -1.323;  -1.877;   3.934;   3.929;  -3.027;   2.509;  -0.091;;;;;;;;;;;;;;;;;;
2015-12-07T00:11:09.104Z;0;6.2800e+01;0;     0.082;  9222.220;  71757.562; 0;  71162.477;  71757.562;  75922.828;  66700.609;227;   3.935; 133.176;;; 182.191; 108.578;  21.360;  -1.323;  -1.877;   3.937;   3.932;  -3.031;   2.508;  -0.091;;;;;;;;;;;;;;;;;;
2015-12-07T00:11:25.104Z;0;6.2910e+01;0;     0.090;  9222.220;  71820.109; 0;  71225.547;  71820.109;  75985.766;  66763.547;227;   3.937; 133.273;;; 182.289; 108.672;  21.363;  -1.324;  -1.877;   3.939;   3.934;  -3.035;   2.507;  -0.091;;;;;;;;;;;;;;;;;;
2015-12-07T00:11:41.104Z;0;6.3200e+01;0;     0.086;  9222.220;  71980.555; 0;  71387.328;  71980.555;  76147.211;  66924.984;227;   3.940; 133.370;;; 182.386; 108.767;  21.367;  -1.324;  -1.877;   3.942;   3.937;  -3.039;   2.505;  -0.091;;;;;;;;;;;;;;;;;;
2015-12-07T00:11:57.103Z;0;6.2560e+01;0;     0.079;  9222.220;  71624.523; 0;  71028.328;  71624.523;  75788.953;  66566.734;227;   3.942; 133.467;;; 182.484; 108.861;  21.370;  -1.324;  -1.877;   3.945;   3.939;  -3.044;   2.504;  -0.091;;;;;;;;;;;;;;;;;;
2015-12-07T00:12:13.103Z;0;6.3050e+01;0;     0.091;  9153.004;  71890.266; 0;  71305.211;  71890.266;  76028.422;  66875.422;227;   3.945; 133.563;;; 182.582; 108.955;  21.374;  -1.324;  -1.876;   3.947;   3.942;  -3.048;   2.503;  -0.091;;;;;;;;;;;;;;;;;;
2015-12-07T00:12:29.103Z;0;6.2740e+01;0;     0.075;  9153.004;  71713.844; 0;  71127.336;  71713.844;  75850.914;  66697.914;227;   3.948; 133.660;;; 182.680; 109.049;  21.377;  -1.325;  -1.876;   3.950;   3.945;  -3.052;   2.502;  -0.091;;;;;;;;;;;;;;;;;;
2015-12-07T00:12:45.103Z;0;6.2420e+01;0;     0.074;  9153.004;  71536.773; 0;  70948.805;  71536.773;  75672.750;  66519.750;227;   3.950; 133.757;;; 182.779; 109.144;  21.381;  -1.325;  -1.876;   3.952;   3.947;  -3.057;   2.501;  -0.091;;;;;;;;;;;;;;;;;;
2015-12-07T00:13:01.103Z;0;6.2540e+01;0;     0.078;  9083.145;  71596.570; 0;  71018.062;  71596.570;  75704.703;  66621.562;227;   3.953; 133.855;;; 182.877; 109.238;  21.384;  -1.325;  -1.876;   3.955;   3.950;  -3.061;   2.499;  -0.091;;;;;;;;;;;;;;;;;;
2015-12-07T00:13:17.103Z;0;6.2710e+01;0;     0.086;  9083.145;  71689.055; 0;  71111.297;  71689.055;  75797.750;  66714.609;227;   3.955; 133.952;;; 182.976; 109.332;  21.388;  -1.325;  -1.876;   3.957;   3.952;  -3.065;   2.498;  -0.091;;;;;;;;;;;;;;;;;;
2015-12-07T00:13:33.103Z;0;6.2840e+01;0;     0.083;  9083.145;  71763.555; 0;  71186.406;  71763.555;  75872.703;  66789.555;227;   3.958; 134.049;;; 183.075; 109.426;  21.391;  -1.325;  -1.876;   3.960;   3.955;  -3.070;   2.497;  -0.092;;;;;;;;;;;;;;;;;;
2015-12-07T00:13:49.103Z;0;6.2820e+01;0;     0.083;  9083.145;  71753.648; 0;  71176.422;  71753.648;  75862.734;  66779.594;227;   3.960; 134.146;;; 183.173; 109.521;  21.395;  -1.326;  -1.876;   3.962;   3.957;  -3.074;   2.496;  -0.092;;;;;;;;;;;;;;;;;;
2015-12-07T00:14:05.103Z;0;6.2280e+01;0;     0.076;  9015.048;  71439.336; 0;  70868.242;  71439.336;  75518.969;  66503.922;227;   3.963; 134.244;;; 183.272; 109.615;  21.398;  -1.326;  -1.876;   3.965;   3.960;  -3.078;   2.494;  -0.092;;;;;;;;;;;;;;;;;;
2015-12-07T00:14:21.103Z;0;6.2430e+01;0;     0.078;  9015.048;  71524.516; 0;  70954.109;  71524.516;  75604.664;  66589.617;227;   3.965; 134.341;;; 183.372; 109.709;  21.402;  -1.326;  -1.875;   3.968;   3.962;  -3.082;   2.493;  -0.092;;;;;;;;;;;;;;;;;;
2015-12-07T00:14:37.102Z;0;6.2460e+01;0;     0.078;  9015.048;  71539.406; 0;  70969.117;  71539.406;  75619.641;  66604.594;227;   3.968; 134.439;;; 183.471; 109.803;  21.405;  -1.326;  -1.875;   3.970;   3.965;  -3.087;   2.492;  -0.092;;;;;;;;;;;;;;;;;;
2015-12-07T00:14:53.102Z;0;6.3490e+01;0;     0.098;  9015.048;  72120.547; 0;  71554.891;  72120.547;  76204.250;  67189.195;227;   3.971; 134.536;;; 183.570; 109.898;  21.409;  -1.326;  -1.875;   3.973;   3.968;  -3.091;   2.491;  -0.092;;;;;;;;;;;;;;;;;;
2015-12-07T00:15:09.102Z;0;6.2640e+01;0;     0.077;  8945.805;  71633.945; 0;  71073.164;  71633.945;  75686.680;  66740.875;227;   3.973; 134.634;;; 183.670; 109.992;  21.412;  -1.327;  -1.875;   3.975;   3.970;  -3.095;   2.490;  -0.092;;;;;;;;;;;;;;;;;;
2015-12-07T00:15:25.102Z;0;6.3230e+01;0;     0.089;  8945.805;  71966.547; 0;  71408.375;  71966.547;  76021.234;  67075.430;227;   3.976; 134.732;;; 183.770; 110.086;  21.416;  -1.327;  -1.875;   3.978;   3.973;  -3.100;   2.488;  -0.092;;;;;;;;;;;;;;;;;;
2015-12-07T00:15:41.102Z;0;6.2900e+01;0;     0.086;  8945.805;  71782.273; 0;  71222.664;  71782.273;  75835.875;  66890.070;227;   3.978; 134.829;;; 183.869; 110.180;  21.419;  -1.327;  -1.875;   3.980;   3.975;  -3.104;   2.487;  -0.092;;;;;;;;;;;;;;;;;;
2015-12-07T00:15:57.102Z;0;6.2920e+01;0;     0.091;  8945.805;  71788.430; 0;  71228.867;  71788.430;  75842.070;  66896.266;227;   3.981; 134.927;;; 183.969; 110.275;  21.423;  -1.327;  -1.875;   3.983;   3.978;  -3.108;   2.486;  -0.092;;;;;;;;;;;;;;;;;;
2015-12-07T00:16:29.102Z;0;6.3280e+01;0;     0.090;  8878.353;  71986.172; 0;  71436.570;  71986.172;  76013.547;  67135.188;227;   3.986; 135.123;;; 184.170; 110.463;  21.430;  -1.328;  -1.874;   3.988;   3.983;  -3.117;   2.483;  -0.092;;;;;;;;;;;;;;;;;;
2015-12-07T00:16:45.102Z;0;6.2260e+01;0;     0.074;  8878.353;  71409.414; 0;  70855.344;  71409.414;  75433.438;  66555.086;227;   3.989; 135.221;;; 184.270; 110.557;  21.433;  -1.328;  -1.874;   3.991;   3.986;  -3.121;   2.482;  -0.092;;;;;;;;;;;;;;;;;;
2015-12-07T00:17:01.101Z;0;6.2980e+01;0;     0.077;  8810.928;  71809.602; 0;  71267.008;  71809.602;  75808.508;  66997.578;227;   3.991; 135.320;;; 184.371; 110.651;  21.437;  -1.328;  -1.874;   3.993;   3.988;  -3.125;   2.481;  -0.093;;;;;;;;;;;;;;;;;;
2015-12-07T00:17:17.101Z;0;6.2330e+01;0;     0.072;  8810.928;  71442.203; 0;  70896.797;  71442.203;  75439.008;  66628.078;227;   3.994; 135.418;;; 184.472; 110.746;  21.440;  -1.328;  -1.874;   3.996;   3.991;  -3.129;   2.480;  -0.093;;;;;;;;;;;;;;;;;;
2015-12-07T00:17:33.101Z;0;6.3430e+01;0;     0.094;  8810.928;  72062.055; 0;  71521.375;  72062.055;  76062.391;  67251.461;227;   3.996; 135.516;;; 184.573; 110.840;  21.444;  -1.329;  -1.874;   3.998;   3.993;  -3.134;   2.478;  -0.093;;;;;;;;;;;;;;;;;;
2015-12-07T00:17:49.101Z;0;6.3500e+01;0;     0.080;  8810.928;  72100.523; 0;  71560.133;  72100.523;  76101.078;  67290.148;227;   3.999; 135.614;;; 184.674; 110.934;  21.447;  -1.329;  -1.873;   4.001;   3.996;  -3.138;   2.477;  -0.093;;;;;;;;;;;;;;;;;;
2015-12-07T00:18:05.101Z;0;6.4490e+01;0;     0.092;  8742.160;  72644.797; 0;  72116.859;  72644.797;  76620.281;  67878.125;227;   4.001; 135.713;;; 184.775; 111.028;  21.451;  -1.329;  -1.873;   4.004;   3.998;  -3.142;   2.476;  -0.093;;;;;;;;;;;;;;;;;;
2015-12-07T00:18:21.101Z;0;6.8400e+01;0;     0.101;  8742.160;  74782.000; 0;  74269.258;  74782.000;  78768.852;  70026.695;227;   4.004; 135.811;;; 184.876; 111.123;  21.454;  -1.329;  -1.873;   4.006;   4.001;  -3.146;   2.475;  -0.093;;;;;;;;;;;;;;;;;;
2015-12-07T00:18:37.101Z;0;6.4230e+01;0;     0.084;  8742.160;  72500.539; 0;  71971.539;  72500.539;  76475.234;  67733.078;227;   4.007; 135.910;;; 184.977; 111.217;  21.458;  -1.329;  -1.873;   4.009;   4.004;  -3.151;   2.473;  -0.093;;;;;;;;;;;;;;;;;;
2015-12-07T00:18:53.101Z;0;6.8360e+01;0;     0.075;  8742.160;  74761.375; 0;  74248.484;  74761.375;  78748.117;  70005.961;227;   4.009; 136.008;;; 185.079; 111.311;  21.461;  -1.329;  -1.873;   4.011;   4.006;  -3.155;   2.472;  -0.093;;;;;;;;;;;;;;;;;;
2015-12-07T00:19:09.101Z;0;6.9230e+01;0;     0.092;  8673.868;  75220.828; 0;  74719.055;  75220.828;  79181.750;  70507.875;227;   4.012; 136.107;;; 185.181; 111.405;  21.464;  -1.330;  -1.873;   4.014;   4.009;  -3.159;   2.471;  -0.093;;;;;;;;;;;;;;;;;;
2015-12-07T00:19:25.101Z;0;6.8950e+01;0;     0.082;  8673.868;  75068.859; 0;  74566.062;  75068.859;  79029.016;  70355.148;227;   4.014; 136.206;;; 185.282; 111.500;  21.468;  -1.330;  -1.872;   4.016;   4.011;  -3.163;   2.470;  -0.093;;;;;;;;;;;;;;;;;;
2015-12-07T00:19:41.100Z;0;6.8970e+01;0;     0.083;  8673.868;  75081.633; 0;  74578.922;  75081.633;  79041.852;  70367.984;227;   4.017; 136.305;;; 185.384; 111.594;  21.471;  -1.330;  -1.872;   4.019;   4.014;  -3.168;   2.468;  -0.093;;;;;;;;;;;;;;;;;;
2015-12-07T00:19:57.100Z;0;6.9370e+01;0;     0.086;  8673.868;  75296.406; 0;  74795.141;  75296.406;  79257.703;  70583.836;227;   4.019; 136.403;;; 185.487; 111.688;  21.475;  -1.330;  -1.872;   4.022;   4.016;  -3.172;   2.467;  -0.093;;;;;;;;;;;;;;;;;;
2015-12-07T00:20:13.100Z;0;6.8840e+01;0;     0.074;  8608.601;  75005.266; 0;  74509.609;  75005.266;  78938.133;  70329.531;227;   4.022; 136.502;;; 185.587; 111.784;  21.478;  -1.330;  -1.872;   4.024;   4.019;  -3.176;   2.466;  -0.093;;;;;;;;;;;;;;;;;;
2015-12-07T00:20:29.100Z;0;6.9060e+01;0;     0.076;  8608.601;  75119.547; 0;  74624.648;  75119.547;  79052.984;  70444.383;227;   4.025; 136.601;;; 185.686; 111.881;  21.481;  -1.331;  -1.872;   4.027;   4.022;  -3.180;   2.465;  -0.093;;;;;;;;;;;;;;;;;;
2015-12-07T00:20:45.100Z;0;6.9100e+01;0;     0.079;  8608.601;  75141.734; 0;  74646.984;  75141.734;  79075.281;  70466.680;227;   4.027; 136.700;;; 185.785; 111.978;  21.485;  -1.331;  -1.872;   4.029;   4.024;  -3.185;   2.463;  -0.094;;;;;;;;;;;;;;;;;;
2015-12-07T00:21:01.100Z;0;6.8900e+01;0;     0.077;  8544.508;  75028.398; 0;  74540.273;  75028.398;  78934.859;  70390.344;227;   4.030; 136.799;;; 185.885; 112.076;  21.488;  -1.331;  -1.872;   4.032;   4.027;  -3.189;   2.462;  -0.094;;;;;;;;;;;;;;;;;;
2015-12-07T00:21:17.100Z;0;6.8600e+01;0;     0.079;  8544.508;  74868.273; 0;  74379.094;  74868.273;  78773.945;  70229.438;227;   4.032; 136.899;;; 185.984; 112.173;  21.492;  -1.331;  -1.871;   4.034;   4.029;  -3.193;   2.461;  -0.094;;;;;;;;;;;;;;;;;;
2015-12-07T00:21:33.100Z;0;6.8940e+01;0;     0.075;  8544.508;  75051.352; 0;  74563.375;  75051.352;  78957.922;  70413.414;227;   4.035; 136.998;;; 186.084; 112.271;  21.495;  -1.331;  -1.871;   4.037;   4.032;  -3.197;   2.460;  -0.094;;;;;;;;;;;;;;;;;;
2015-12-07T00:21:49.100Z;0;6.9490e+01;0;     0.086;  8544.508;  75342.188; 0;  74856.109;  75342.188;  79250.180;  70705.664;227;   4.037; 137.097;;; 186.183; 112.368;  21.498;  -1.331;  -1.871;   4.040;   4.034;  -3.201;   2.458;  -0.094;;;;;;;;;;;;;;;;;;
2015-12-07T00:22:05.100Z;0;6.9220e+01;0;     0.085;  8480.248;  75189.914; 0;  74710.164;  75189.914;  79070.516;  70590.266;227;   4.040; 137.197;;; 186.283; 112.466;  21.502;  -1.332;  -1.871;   4.042;   4.037;  -3.206;   2.457;  -0.094;;;;;;;;;;;;;;;;;;
2015-12-07T00:22:21.099Z;0;6.9410e+01;0;     0.083;  8480.248;  75291.227; 0;  74812.125;  75291.227;  79172.312;  70692.062;227;   4.043; 137.296;;; 186.382; 112.564;  21.505;  -1.332;  -1.871;   4.045;   4.040;  -3.210;   2.456;  -0.094;;;;;;;;;;;;;;;;;;
2015-12-07T00:22:37.099Z;0;6.9770e+01;0;     0.086;  8480.248;  75488.695; 0;  75010.859;  75488.695;  79370.727;  70890.477;227;   4.045; 137.396;;; 186.481; 112.662;  21.509;  -1.332;  -1.871;   4.047;   4.042;  -3.214;   2.455;  -0.094;;;;;;;;;;;;;;;;;;
2015-12-07T00:22:53.099Z;0;6.9530e+01;0;     0.077;  8480.248;  75358.984; 0;  74880.320;  75358.984;  79240.391;  70760.148;227;   4.048; 137.495;;; 186.581; 112.760;  21.512;  -1.332;  -1.870;   4.050;   4.045;  -3.218;   2.453;  -0.094;;;;;;;;;;;;;;;;;;
2015-12-07T00:23:09.099Z;0;6.9700e+01;0;     0.087;  8415.624;  75441.828; 0;  74970.969;  75441.828;  79296.773;  70881.148;227;   4.050; 137.595;;; 186.680; 112.859;  21.515;  -1.332;  -1.870;   4.053;   4.047;  -3.223;   2.452;  -0.094;;;;;;;;;;;;;;;;;;